Weather History for Ft Lauderdale, FL

Change the Weather History Date:

Saturday, May 3, 2014

  Actual Average Record
Temperature  
Mean Temperature 81 °F 78 °F  
Max Temperature 88 °F 85 °F 91 °F (1920)
Min Temperature 74 °F 72 °F 55 °F (1925)
Degree Days  
Heating Degree Days 0 0  
Month to date heating degree days 0 0  
Since 1 July heating degree days 81 112  
Cooling Degree Days 16 13  
Month to date cooling degree days 53 39  
Year to date cooling degree days 1105 986  
Growing Degree Days 30 (Base 50)    
Moisture  
Dew Point 71 °F    
Average Humidity 74    
Maximum Humidity 93    
Minimum Humidity 55    
Precipitation  
Precipitation 1.81 in 0.06 in 4.54 in (1963)
Month to date precipitation 1.81 0.19  
Year to date precipitation 14.20 13.03  
Snow  
Snow 0.00 in - - ()
Month to date snowfall 0.0  
Since 1 July snowfall 0.0  
Snow Depth 0.00 in    
Sea Level Pressure  
Sea Level Pressure 29.95 in    
Wind  
Wind Speed 6 mph (ESE)    
Max Wind Speed 35 mph    
Max Gust Speed 46 mph    
Visibility 7 miles    
Events Fog , Rain    
T = Trace of Precipitation, MM = Missing Value Source: NWS Daily Summary

Daily Weather History Graph

Daily Weather History Graph

Search for Another Location

Airport:

Trip Planner

Search our weather history database for the weather conditions in past years. The results will help you decide how hot, cold, wet, or windy it might be!

Date:

Astronomy

May. 03, 2014 Rise Set
Actual Time 6:41 AM EDT 7:53 PM EDT
Civil Twilight 6:17 AM EDT 8:17 PM EDT
Nautical Twilight 5:48 AM EDT 8:46 PM EDT
Astronomical Twilight 5:18 AM EDT 9:16 PM EDT
Moon 10:15 AM EDT (5/3) 11:55 PM EDT (5/3)
Length of Visible Light 14h 00m
Length of Day
13h 11m
Waxing Crescent, 19% of the Moon is Illuminated
May 3
Waxing Crescent
May 6
First Quarter
May 14
Full
May 21
Last Quarter
May 28
New

Hourly Weather History & Observations

Time (EDT) Temp. Heat Index Dew Point Humidity Pressure Visibility Wind Dir Wind Speed Gust Speed Precip Events Conditions
12:53 AM 77.0 °F - 68.0 °F 74% 29.96 in 10.0 mi North 4.6 mph - N/A   Clear
1:53 AM 75.2 °F - 66.2 °F 73% 29.95 in 10.0 mi NNE 3.5 mph - N/A   Scattered Clouds
2:53 AM 77.0 °F - 69.1 °F 76% 29.93 in 10.0 mi Calm Calm - N/A   Clear
3:53 AM 77.0 °F - 70.0 °F 79% 29.93 in 10.0 mi North 3.5 mph - N/A   Scattered Clouds
4:53 AM 77.0 °F - 71.1 °F 82% 29.92 in 10.0 mi Calm Calm - N/A   Clear
5:53 AM 78.1 °F - 72.0 °F 81% 29.92 in 10.0 mi Calm Calm - N/A   Partly Cloudy
6:53 AM 78.1 °F - 72.0 °F 81% 29.93 in 10.0 mi South 4.6 mph - N/A   Scattered Clouds
7:53 AM 80.1 °F 83.8 °F 72.0 °F 76% 29.94 in 10.0 mi South 5.8 mph - N/A   Mostly Cloudy
8:53 AM 80.1 °F 83.8 °F 72.0 °F 76% 29.93 in 10.0 mi SSW 6.9 mph - N/A   Mostly Cloudy
9:53 AM 82.0 °F 86.3 °F 71.1 °F 69% 29.95 in 10.0 mi WSW 8.1 mph - N/A   Mostly Cloudy
10:53 AM 82.9 °F 86.5 °F 69.1 °F 63% 29.96 in 10.0 mi SW 8.1 mph - N/A   Mostly Cloudy
11:53 AM 84.9 °F 89.4 °F 70.0 °F 61% 29.96 in 10.0 mi South 11.5 mph - N/A   Mostly Cloudy
12:53 PM 87.1 °F 91.3 °F 69.1 °F 55% 29.95 in 10.0 mi SW 9.2 mph - N/A   Mostly Cloudy
1:53 PM 86.0 °F 91.5 °F 71.1 °F 61% 29.94 in 10.0 mi SSE 10.4 mph - N/A   Mostly Cloudy
2:24 PM 86.0 °F 91.8 °F 71.6 °F 62% 29.93 in 1.0 mi SSE 25.3 mph 29.9 mph N/A Rain Heavy Rain
2:31 PM 82.0 °F 86.7 °F 72.0 °F 71% 29.95 in 1.8 mi SSE 24.2 mph 32.2 mph 0.09 in Rain Rain
2:32 PM 86.0 °F 91.8 °F 71.6 °F 62% 29.93 in 1.0 mi SSE 25.3 mph 29.9 mph N/A Rain Heavy Rain
2:40 PM 77.0 °F - 71.1 °F 82% 29.96 in 0.5 mi South 20.7 mph 39.1 mph 0.42 in Rain Heavy Rain
2:53 PM 77.0 °F - 72.0 °F 84% 29.97 in 0.5 mi SSE 28.8 mph 46.0 mph 0.80 in Rain Heavy Rain
3:00 PM 75.0 °F - 72.0 °F 90% 29.93 in 0.5 mi ESE 32.2 mph 39.1 mph 0.33 in Fog , Rain Heavy Rain
3:08 PM 75.2 °F - 71.6 °F 89% 29.91 in 8.0 mi ESE 19.6 mph 43.7 mph N/A Rain Rain
3:10 PM 79.0 °F - - N/A% 29.93 in 2.0 mi ESE 11.5 mph 43.7 mph 0.45 in Rain Light Rain
3:11 PM 78.8 °F - - N/A% 29.93 in 2.0 mi ESE 11.5 mph 28.8 mph N/A Rain Rain
3:17 PM 78.1 °F - - N/A% 29.93 in 0.8 mi East 10.4 mph - 0.71 in Rain Heavy Rain
3:20 PM 75.2 °F - - N/A% 29.94 in 6.0 mi ESE 10.4 mph - N/A Rain Light Rain
3:23 PM 75.9 °F - - N/A% 29.94 in 1.2 mi SE 5.8 mph - 0.72 in Rain Light Rain
3:26 PM 75.0 °F - - N/A% 29.94 in 3.0 mi ESE 6.9 mph - 0.72 in Rain Light Rain
3:52 PM 78.8 °F - 71.6 °F 78% 29.94 in 10.0 mi NE 9.2 mph - N/A   Overcast
3:53 PM 78.1 °F - - N/A% 29.95 in 10.0 mi NNE 8.1 mph - 0.72 in   Overcast
4:52 PM 75.2 °F - 69.8 °F 83% 29.95 in 10.0 mi NE 9.2 mph - N/A   Overcast
4:53 PM 75.9 °F - - N/A% 29.95 in 10.0 mi NE 12.7 mph - 0.02 in   Overcast
5:30 PM 75.9 °F - 73.0 °F 91% 29.96 in 10.0 mi NE 5.8 mph - 0.00 in Rain Light Rain
5:43 PM 75.0 °F - 72.0 °F 90% 29.97 in 5.0 mi NW 8.1 mph - 0.02 in Rain Rain
5:47 PM 75.2 °F - 71.6 °F 89% 29.98 in 2.0 mi NW 12.7 mph 18.4 mph 0.10 in Rain Rain
5:53 PM 73.9 °F - 71.1 °F 91% 29.97 in 0.8 mi North 9.2 mph - 0.25 in Rain Heavy Rain
5:59 PM 73.4 °F - 71.6 °F 94% 29.97 in 6.0 mi NNE 5.8 mph - N/A Rain Light Rain
6:00 PM 73.9 °F - 72.0 °F 93% 29.96 in 2.0 mi NNE 5.8 mph - 0.01 in Rain Light Rain
6:08 PM 73.9 °F - 72.0 °F 93% 29.96 in 10.0 mi North 4.6 mph - 0.01 in   Mostly Cloudy
6:16 PM 75.2 °F - 71.6 °F 89% 29.96 in 10.0 mi NNE 5.8 mph - N/A   Scattered Clouds
6:53 PM 73.9 °F - 72.0 °F 93% 29.96 in 10.0 mi NE 3.5 mph - 0.01 in   Clear
7:53 PM 73.9 °F - 71.1 °F 91% 29.95 in 10.0 mi Calm Calm - N/A   Clear
8:53 PM 75.0 °F - 72.0 °F 90% 29.97 in 10.0 mi Calm Calm - 0.00 in   Mostly Cloudy
9:53 PM 75.9 °F - 71.1 °F 85% 29.99 in 10.0 mi Calm Calm - N/A   Mostly Cloudy
10:53 PM 75.9 °F - 72.0 °F 87% 30.00 in 10.0 mi SW 3.5 mph - 0.01 in   Partly Cloudy
11:53 PM 75.0 °F - 72.0 °F 90% 30.00 in 10.0 mi WSW 4.6 mph - N/A   Partly Cloudy